Location: Trebic
(49.2170°N, 15.8830°E)
Time: 22:34:04
(UTC+01:00)

Transit 4A - Pass Details

Date: 06 November 2020
Orbit: 862 x 982 km, 66.8° (Epoch: 30 November)

Event Time Altitude Azimuth Distance (km) Brightness Sun altitude
Rises 17:46:28 0° 307° (NW) 3,684 11.7 -13.3°
Reaches altitude 10° 17:50:12 10° 328° (NNW) 2,743 10.7 -13.9°
Maximum altitude 17:54:05 16° 5° (N) 2,316 9.8 -14.5°
Enters shadow 17:57:36 11° 40° (NE) 2,671 9.9 -15.1°
